Location: �perlecques
(50.8057°N, 2.1521°E)
Time: 21:01:18
(UTC+00:00)

Tiros 1 - Pass Details

Date: 11 August 2021
Orbit: 630 x 663 km, 48.4° (Epoch: 28 September)

Event Time Altitude Azimuth Distance (km) Brightness Sun altitude
Rises 17:14:47 0° 269° (W) 2,994 12.3 18.2°
Reaches altitude 10° 17:17:09 10° 267° (W) 2,079 12.3 17.8°
Maximum altitude 17:21:55 65° 186° (S) 726 7.7 17.0°
Drops below altitude 10° 17:26:37 10° 105° (ESE) 2,062 9.2 16.3°
Sets 17:28:58 0° 103° (ESE) 2,967 9.9 15.9°
